www.pogodaiklimat.ru

Погода и климат >> Архив погоды >> Россия >> Краснодарский край >> Туапсе


АРХИВ ПОГОДЫ в Туапсе

Время (UTC), дата Ветер
(напр.,м/с)
 
Видим.   Явления Облачность Т
(С)
Тd
(С)
f
(%)
Тe
(С)
Тes
(С)
Комфортность P
(гПа)
Po
(гПа)
Тmin
(С)
Tmax
(С)
R
(мм)
R24
(мм)
S
(см)
06 9.01 штиль 0 10 км в посл. час ливневой снег 10/8 600 м
[Cb cap Ac As]
+0.8 -0.8 89 -0 -0 по сезону 1012.1 1004.4 +0.3
09 9.01 С 2 20 км {ливн. осадки} 10/3 1000 м
[Sc Ac trans Ci fib]
+2.5 -1.9 73 -0 +1 по сезону 1015.4 1007.7
12 9.01 СЗ 1 20 км {ливн. осадки} 3/0
[Ac trans Ci fib]
+4.5 -4.0 54 +4 +5 по сезону 1017.6 1010.0
15 9.01 СВ 2 10 км 3/1 1000 м
[Sc Ci fib]
+1.3 -2.6 75 -2 -2 прохладно 1019.5 1011.8 +5.3 3
18 9.01 СВ 1 10 км 4/1 1000 м
[Sc Ac trans Ci fib]
+1.8 -2.9 71 0 0 по сезону 1021.0 1013.3
21 9.01 В 3 10 км 10/6 1000 м
[Sc Ac trans Ci fib]
+3.3 -3.4 61 -0 -0 по сезону 1021.6 1013.9
00 10.01 ЮВ 5 10 км 10/4 1000 м
[Sc Ac trans Ci fib]
+5.2 -4.0 51 +1 +1 по сезону 1022.6 1014.9
03 10.01 ЮВ 5 10 км {ливн. осадки} 10/8 1000 м
[Cb cap Ac trans Ci fib]
+5.0 -6.0 45 +1 +1 по сезону 1021.6 1014.0 +0.3 0.0
06 10.01 В 5
{10}
20 км {ливн. осадки} 6/4 1000 м
[Cu Sc Ac trans Ci sp]
+6.1 -6.9 39 +3 +3 по сезону 1022.2 1014.6
09 10.01 ЮВ 6-12
{12}
20 км 9/3 1000 м
[Cu Sc Ac trans Ci sp]
+7.5 -4.1 44 +4 +4 по сезону 1021.1 1013.5
12 10.01 ЮВ 6-12
{12}
20 км 10/8 1000 м
[Cu Sc Ac trans Ci sp]
+9.3 -2.1 45 +6 +6 по сезону 1019.6 1012.1
15 10.01 ЮВ 5-12
{15}
10 км 10/8 1000 м
[Sc Ac trans Ci sp]
+9.2 -0.8 50 +6 +6 по сезону 1019.5 1012.0 +9.5
18 10.01 ЮВ 6-10
{13}
10 км {ливн. осадки} 10/10 1000 м
[Cb cap]
+9.8 -2.5 42 +7 +7 тепло 1019.3 1011.8
21 10.01 ЮВ 6-12
{14}
10 км 10/10 1000 м
[Cb cap]
+10.5 -0.6 46 +8 +8 тепло 1019.2 1011.7
00 11.01 ЮВ 7-13
{14}
10 км 10/10 600 м
[Cb cap]
+10.8 +1.7 53 +8 +8 тепло 1019.5 1012.0
03 11.01 ЮВ 8-14
{16}
10 км 10/10 1000 м
[Cb cap]
+10.9 +0.7 49 +8 +8 тепло 1018.3 1010.8 +9.2 0.0
06 11.01 ЮВ 6-13
{14}
20 км {ливн. осадки} 9/9 1000 м
[Cb cap]
+10.7 +2.4 56 +8 +8 тепло 1019.2 1011.7
09 11.01 ЮВ 8-14
{15}
20 км 10/8 1000 м
[Cb cap Ac trans Ci fib]
+11.3 +1.5 51 +8 +8 тепло 1017.8 1010.4
12 11.01 ЮВ 6-12
{16}
20 км 10/6 1000 м
[Sc Ac trans Ci fib]
+11.3 +2.8 56 +9 +9 тепло 1016.8 1009.4
15 11.01 ЮВ 7-13
{13}
4000 м слаб. ливневой дождь 10/8
[Cb cap Ac trans Ci fib]
+11.3 +2.5 55 +8 +8 тепло 1016.0 1008.6 +11.6
18 11.01 ЮВ 6-12
{13}
10 км {ливн. осадки} 10/8 1000 м
[Cb cap Ac trans Ci fib]
+11.4 +3.9 60 +9 +9 тепло 1015.6 1008.2
21 11.01 Ю 5-12
{12}
10 км 10/10 600 м
[Cb cap]
+11.5 +3.9 60 +9 +9 тепло 1014.1 1006.7
00 12.01 ЮЗ 5
{12}
10 км в посл. час ливневой дождь 10/10 600 м
[Cb cap]
+10.1 +6.3 77 +7 +7 тепло 1014.3 1006.9
03 12.01 ЮЗ 7-11
{11}
10 км в посл. час ливневой дождь 10/10 600 м
[Cb cap]
+8.6 +6.2 85 +4 +4 по сезону 1013.9 1006.4 +8.6 2
06 12.01 ЮЗ 6
{12}
10 км слаб. ливневой дождь 10/10 600 м
[Cb cap]
+7.1 +4.5 84 +3 +3 по сезону 1015.6 1008.1 +7.1
09 12.01 ЮЗ 4
{10}
20 км {ливн. осадки} 10/8 1000 м
[Cb cap Ci sp]
+7.0 +3.4 78 +4 +4 по сезону 1014.9 1007.4
12 12.01 ЮЗ 4 20 км в посл. час ливневой дождь 10/8 1000 м
[Cb cap Ci sp]
+7.4 +2.6 72 +4 +4 по сезону 1013.7 1006.2
15 12.01 ЮВ 3 10 км слаб. ливневой дождь 10/10 600 м
[Cb cap]
+6.9 +3.0 76 +4 +4 по сезону 1012.9 1005.4 +8.6 2
18 12.01 В 3 10 км {ливн. осадки} 10/10 600 м
[Cb cap]
+6.8 +4.0 82 +4 +4 по сезону 1010.8 1003.3
21 12.01 ЮЗ 5 4000 м слаб. ливневой дождь 10/10 600 м
[Cb cap]
+7.4 +5.2 86 +3 +3 по сезону 1009.0 1001.5
00 13.01 СЗ 1 4000 м слаб. ливневой дождь 10/10 600 м
[Cb cap]
+5.8 +3.8 87 +5 +5 тепло 1008.4 1000.9
03 13.01 З 1 4000 м слаб. ливневой дождь 10/10 600 м
[Cb cap]
+5.5 +3.7 88 +4 +4 по сезону 1007.7 1000.2 +5.4 18
06 13.01 СВ 2 10 км слаб. ливневой дождь 10/10 600 м
[Cb cap]
+4.2 +2.2 87 +1 +1 по сезону 1008.5 1000.9 +4.2
09 13.01 СВ 3 10 км слаб. ливневой дождь 10/8 600 м
[Cb cap Ac trans Ci fib]
+3.4 +0.6 82 -0 -0 по сезону 1008.9 1001.3
12 13.01 С 1 10 км слаб. ливневой дождь 10/8 600 м
[Cb cap Ac trans Ci fib]
+4.6 +2.1 84 +3 +4 по сезону 1009.1 1001.5
15 13.01 С 1 10 км {ливн. осадки} 10/8 1000 м
[Cb cap Ac trans Ci fib]
+4.2 +1.1 80 +3 +3 по сезону 1009.2 1001.6 +5.6 9
18 13.01 СВ 2 10 км {ливн. осадки} 10/8 1000 м
[Cb cap Ac trans Ci fib]
+3.6 +0.1 78 +1 +1 по сезону 1009.1 1001.5
21 13.01 СВ 2 4000 м слаб. ливневой дождь 10/10 600 м
[Cb cap]
+3.1 +0.2 81 0 0 по сезону 1008.8 1001.2
00 14.01 СВ 2 10 км {ливн. осадки} 10/8 1000 м
[Cb cap Ci fib]
+3.7 +0.8 81 +1 +1 по сезону 1007.6 1000.0
03 14.01 СВ 1 10 км 10/8 1000 м
[Cb cap Ac trans Ci fib]
+4.4 +2.2 86 +3 +3 по сезону 1006.1 998.6 +3.1 0.5
06 14.01 ЮВ 3 10 км слаб. ливневой дождь 10/8 600 м
[Cb cap Ac trans Ci sp]
+6.9 +4.4 84 +4 +4 тепло 1005.7 998.2
09 14.01 ЮВ 4
{11}
10 км слаб. ливневой дождь 10/8 600 м
[Cb cap Ac trans Ci sp]
+7.8 +5.4 85 +4 +5 по сезону 1004.9 997.5
12 14.01 Ю 4-12
{13}
20 км {ливн. осадки} 10/8 1000 м
[Cb cap Ac As]
+9.4 +5.0 74 +7 +7 тепло 1003.9 996.5
15 14.01 Ю 4-10
{12}
10 км 10/8 1000 м
[Cb cap Ac trans Ci sp]
+10.1 +3.1 62 +8 +8 тепло 1003.8 996.4 +10.2 6
18 14.01 Ю 6-12
{14}
4000 м слаб. ливневой дождь 10/10 1000 м
[Cb cap]
+10.8 +3.7 61 +8 +8 тепло 1004.0 996.6
21 14.01 ЮЗ 7-13
{15}
4000 м слаб. ливневой дождь 10/10 1000 м
[Cb cap]
+10.8 +1.7 53 +8 +8 тепло 1004.6 997.2
00 15.01 ЮВ 8-15
{16}
10 км в посл. час ливневой дождь 10/8 1000 м
[Cb cap Ac As]
+11.1 +2.0 53 +8 +8 тепло 1005.2 997.8
03 15.01 ЮВ 7-12
{15}
4000 м слаб. ливневой дождь 10/10 1000 м
[Cb cap]
+10.5 +3.0 60 +7 +7 тепло 1004.7 997.3 +9.6 0.1
06 15.01 Ю 6-13
{15}
20 км в посл. час ливневой дождь 10/8 1000 м
[Cb cap Ac und]
+11.1 +3.5 59 +8 +8 тепло 1005.3 997.9 +8.6
09 15.01 ЮВ 8-15
{19}
10 км слаб. ливневой дождь 10/10 600 м
[Cb cap]
+10.9 +4.2 63 +7 +7 тепло 1005.2 997.8
12 15.01 ЮВ 8-15
{19}
10 км слаб. ливневой дождь 10/10 600 м
[Cb cap]
+10.9 +4.2 63 +7 +7 тепло 1005.2 997.8
15 15.01 ЮВ 6-12
{15}
20 км {ливн. осадки} 10/8 1000 м
[Cb cap Ac und]
+11.6 +5.0 64 +9 +9 тепло 1002.3 995.0
18 15.01 ЮВ 4
{12}
10 км 10/8 1000 м
[Cb cap Ac und]
+12.2 +4.5 59 +10 +10 тепло 1000.1 992.8 +12.5 0.5
21 15.01 ЮВ 7-13
{19}
10 км {ливн. осадки} 10/10 1000 м
[Cb cap]
+13.1 +2.6 49 +11 +11 тепло 996.1 988.9
00 16.01 Ю 5-12
{18}
10 км {ливн. осадки} 10/10 600 м
[Cb cap]
+12.8 +5.4 61 +11 +11 тепло 996.4 989.2

 

Местоположение метеостанции Туапсе (Краснодарский край, Россия): широта 44.10 долгота 39.07 высота над уровнем моря 62 м.

В архиве по умолчанию представлена погода в Туапсе за последнюю неделю. Архивные данные за месяц целиком и за предыдущие месяцы, начиная с января 2011 года, Вы можете получить, выбрав интересующий диапазон дат из раскрывающегося списка и нажав кнопку "Ввод!".


*Определитесь, кто Вы:
робот инопланетянин человек

Внимание! Время в таблицах - всемирное. Для получения местного времени необходимо прибавить поправку, которая равна 3 ч.

Смотрите также архив погоды в соседних городах и на ближайших метеорологических станциях:

Погода в Магри (Краснодарский край, Россия) (11 км)
Погода в Горном (Краснодарский край, Россия) (26 км)
Погода в Лазаревском (Краснодарский край, Россия) (30 км)
Погода в Джубге (Краснодарский край, Россия) (38 км)
Погода в Кичмае (Краснодарский край, Россия) (46 км)
Погода в Солох Ауле (Краснодарский край, Россия) (56 км)
Погода в Горячем Ключе (Краснодарский край, Россия) (59 км)
Погода в Сочи (Краснодарский край, Россия) (81 км)
Погода в Гузерипле (Адыгея, Россия) (85 км)
Погода в Шунтуке (Адыгея, Россия) (93 км)

Пояснения к столбцам:

Ветер - указаны скорость ветра в м/с - средняя за 10 мин, порывы в срок и между сроками (в фигурных скобках) и направление, откуда дует ветер: С - северный, СВ - северо-восточный, В - восточный, ЮВ - юго-восточный, Ю - южный, ЮЗ - юго-западный, З - западный, СЗ - северо-западный.
Видимость - горизонтальная дальность видимости в метрах или километрах. При видимости от 1 до 10 км при отсутствии осадков обычно наблюдается дымка, при ухудшении видимости до 1 км и менее - туман. В сухую погоду видимость может ухудшаться дымом, пылью или мглою.
Явления - указаны атмосферные явления, наблюдавшиеся в срок или в последний час перед сроком; фигурными скобками обозначены явления, наблюдавшиеся между сроками (за 1-3 часа до срока); квадратными скобками обозначены град или гололедные отложения с указанием их диаметра в мм.
Облачность - указаны через наклонную черту общая и нижняя облачность в баллах и высота нижней границы облаков в метрах; квадратными скобками обозначены формы облаков: Ci - перистые, Cs - перисто-слоистые, Cc - перисто-кучевые, Ac - высококучевые, As - высокослоистые, Sc - слоисто-кучевые, Ns - слоисто-дождевые, Cu - кучевые, Cb - кучево-дождевые. Подробнее классификацию облаков см. в Атласе облаков (PDF).
T - Температура воздуха - температура, измеренная на высоте 2 м над землей.
Td - Температура точки росы - температура, при понижении до которой содержащийся в воздухе водяной пар достигнет насыщения.
f - Относительная влажность воздуха - влажноcть воздуха, измеренная на высоте 2 м над землей.
Te - Эффективная температура - температура, которую ощущает одетый по сезону человек в тени. Характеристика душности погоды. При расчете учитывается влияние влажности воздуха и скорости ветра на теплоощущения человека.
Tes - Эффективная температура на солнце - температура, которую ощущает человек, с поправкой на солнечный нагрев. Характеристика знойности погоды. Зависит от высоты солнца над горизонтом, облачности и скорости ветра. Ночью, в пасмурную погоду, а также при ветре 12 м/с и более поправка равна нулю.
P - Атмосферное давление - приведенное к уровню моря атмосферное давление.
Po - Атмосферное давление - измеренное на уровне метеостанции атмосферное давление.
Tmin - Минимальная температура - минимум температуры воздуха на высоте 2 м над землей.
Tmax - Максимальная температура - максимум температуры воздуха на высоте 2 м над землей.
R - Количество осадков - Количество выпавших осадков за период времени, мм. При наведении курсора мыши на число - период времени, за который выпало указанное количество осадков.
R24 - Количество осадков - Количество выпавших осадков за 24 часа, мм.
S - Снежный покров - Высота снежного покрова, см. При наведении курсора мыши на число - состояние снежного покрова и степень покрытия местности в баллах.